Time,TemperatureF,DewpointF,PressureIn,WindDirection,WindDirectionDegrees,WindSpeedMPH,WindSpeedGustMPH,Humidity,HourlyPrecipIn,Conditions,Clouds,dailyrainin,SoftwareType,DateUTC
2013-01-12 00:02:00,-999.0,-99.9,29.80,ESE,106,3.0,4.0,-999,-99.99,,,-99.99,,2013-01-12 09:02:00,
2013-01-12 00:12:00,24.0,-99.9,29.80,ESE,108,4.0,5.0,-999,-99.99,,,-99.99,,2013-01-12 09:12:00,
2013-01-12 00:22:00,-999.0,-99.9,29.80,East,80,4.0,5.0,-999,-99.99,,,-99.99,,2013-01-12 09:22:00,
2013-01-12 00:33:00,-999.0,-99.9,29.80,East,81,4.0,4.0,-999,-99.99,,,-99.99,,2013-01-12 09:33:00,
2013-01-12 00:43:00,24.0,-99.9,29.80,East,79,4.0,4.0,-999,-99.99,,,-99.99,,2013-01-12 09:43:00,
2013-01-12 00:53:00,-999.0,-99.9,29.80,ENE,70,7.0,8.0,-999,-99.99,,,-99.99,,2013-01-12 09:53:00,
2013-01-12 01:02:00,-999.0,-99.9,29.80,East,81,7.0,9.0,-999,-99.99,,,-99.99,,2013-01-12 10:02:00,
2013-01-12 01:12:00,-999.0,-99.9,29.80,East,95,9.0,10.0,-999,-99.99,,,-99.99,,2013-01-12 10:12:00,
2013-01-12 01:22:00,25.0,-99.9,29.79,East,96,9.0,11.0,-999,-99.99,,,-99.99,,2013-01-12 10:22:00,
2013-01-12 01:32:00,-999.0,-99.9,29.79,East,94,9.0,11.0,-999,-99.99,,,-99.99,,2013-01-12 10:32:00,
2013-01-12 01:43:00,25.0,-99.9,29.80,East,95,11.0,13.0,-999,-99.99,,,-99.99,,2013-01-12 10:43:00,
2013-01-12 01:52:00,-999.0,-99.9,29.80,East,92,9.0,11.0,-999,-99.99,,,-99.99,,2013-01-12 10:52:00,
2013-01-12 02:02:00,-999.0,-99.9,29.80,East,98,12.0,14.0,-999,-99.99,,,-99.99,,2013-01-12 11:02:00,
2013-01-12 02:12:00,25.0,-99.9,29.80,East,95,11.0,13.0,-999,-99.99,,,-99.99,,2013-01-12 11:12:00,
2013-01-12 02:22:00,-999.0,-99.9,29.80,East,90,10.0,12.0,-999,-99.99,,,-99.99,,2013-01-12 11:22:00,
2013-01-12 02:33:00,-999.0,-99.9,29.81,SE,138,12.0,17.0,-999,-99.99,,,-99.99,,2013-01-12 11:33:00,
2013-01-12 02:43:00,-999.0,-99.9,29.80,SE,138,12.0,16.0,-999,-99.99,,,-99.99,,2013-01-12 11:43:00,
2013-01-12 02:53:00,25.0,-99.9,29.80,SE,143,12.0,17.0,-999,-99.99,,,-99.99,,2013-01-12 11:53:00,
2013-01-12 03:03:00,-999.0,-99.9,29.81,SE,136,13.0,18.0,-999,-99.99,,,-99.99,,2013-01-12 12:03:00,
2013-01-12 03:12:00,25.0,-99.9,29.81,SE,137,13.0,16.0,-999,-99.99,,,-99.99,,2013-01-12 12:12:00,
2013-01-12 03:22:00,-999.0,-99.9,29.81,ESE,123,11.0,14.0,-999,-99.99,,,-99.99,,2013-01-12 12:22:00,
2013-01-12 03:33:00,-999.0,-99.9,29.80,ESE,102,11.0,13.0,-999,-99.99,,,-99.99,,2013-01-12 12:33:00,
2013-01-12 03:43:00,25.0,-99.9,29.80,East,100,10.0,13.0,-999,-99.99,,,-99.99,,2013-01-12 12:43:00,
2013-01-12 03:53:00,-999.0,-99.9,29.80,ESE,115,13.0,16.0,-999,-99.99,,,-99.99,,2013-01-12 12:53:00,
2013-01-12 04:03:00,-999.0,-99.9,29.79,ESE,109,12.0,14.0,-999,-99.99,,,-99.99,,2013-01-12 13:03:00,
2013-01-12 04:12:00,-999.0,-99.9,29.79,ESE,103,13.0,15.0,-999,-99.99,,,-99.99,,2013-01-12 13:12:00,
2013-01-12 04:23:00,-999.0,-99.9,29.79,East,96,12.0,15.0,-999,-99.99,,,-99.99,,2013-01-12 13:23:00,
2013-01-12 04:33:00,-999.0,-99.9,29.78,East,96,13.0,15.0,-999,-99.99,,,-99.99,,2013-01-12 13:33:00,
2013-01-12 04:43:00,24.0,-99.9,29.78,East,92,14.0,17.0,-999,-99.99,,,-99.99,,2013-01-12 13:43:00,
2013-01-12 04:53:00,-999.0,-99.9,29.78,East,86,14.0,17.0,-999,-99.99,,,-99.99,,2013-01-12 13:53:00,
2013-01-12 05:02:00,-999.0,-99.9,29.77,East,83,13.0,17.0,-999,-99.99,,,-99.99,,2013-01-12 14:02:00,
2013-01-12 05:12:00,25.0,-99.9,29.77,East,89,13.0,16.0,-999,-99.99,,,-99.99,,2013-01-12 14:12:00,
2013-01-12 05:22:00,25.0,-99.9,29.77,East,89,13.0,16.0,-999,-99.99,,,-99.99,,2013-01-12 14:22:00,
2013-01-12 05:33:00,-999.0,-99.9,29.76,East,84,15.0,18.0,-999,-99.99,,,-99.99,,2013-01-12 14:33:00,
2013-01-12 05:43:00,-999.0,-99.9,29.75,East,81,18.0,21.0,-999,-99.99,,,-99.99,,2013-01-12 14:43:00,
2013-01-12 05:53:00,-999.0,-99.9,29.75,East,82,17.0,21.0,-999,-99.99,,,-99.99,,2013-01-12 14:53:00,
2013-01-12 06:03:00,-999.0,-99.9,29.75,East,81,17.0,20.0,-999,-99.99,,,-99.99,,2013-01-12 15:03:00,
2013-01-12 06:13:00,25.0,-99.9,29.74,ENE,75,17.0,20.0,-999,-99.99,,,-99.99,,2013-01-12 15:13:00,
2013-01-12 06:23:00,-999.0,-99.9,29.73,ENE,75,17.0,21.0,-999,-99.99,,,-99.99,,2013-01-12 15:23:00,
2013-01-12 06:34:00,-999.0,-99.9,29.73,ENE,75,17.0,21.0,-999,-99.99,,,-99.99,,2013-01-12 15:34:00,
2013-01-12 06:43:00,-999.0,-99.9,29.73,ENE,75,17.0,21.0,-999,-99.99,,,-99.99,,2013-01-12 15:43:00,
2013-01-12 06:53:00,-999.0,-99.9,29.72,ENE,78,15.0,19.0,-999,-99.99,,,-99.99,,2013-01-12 15:53:00,
2013-01-12 07:03:00,-999.0,-99.9,29.72,ENE,78,15.0,19.0,-999,-99.99,,,-99.99,,2013-01-12 16:03:00,
2013-01-12 07:13:00,-999.0,-99.9,29.72,ENE,78,15.0,19.0,-999,-99.99,,,-99.99,,2013-01-12 16:13:00,
2013-01-12 07:23:00,-999.0,-99.9,29.72,ENE,78,15.0,19.0,-999,-99.99,,,-99.99,,2013-01-12 16:23:00,
2013-01-12 07:33:00,-999.0,-99.9,29.71,East,87,16.0,19.0,-999,-99.99,,,-99.99,,2013-01-12 16:33:00,
2013-01-12 07:43:00,26.0,-99.9,29.70,East,88,17.0,20.0,-999,-99.99,,,-99.99,,2013-01-12 16:43:00,
2013-01-12 07:53:00,-999.0,-99.9,29.70,East,89,17.0,19.0,-999,-99.99,,,-99.99,,2013-01-12 16:53:00,
2013-01-12 08:03:00,-999.0,-99.9,29.70,East,89,17.0,19.0,-999,-99.99,,,-99.99,,2013-01-12 17:03:00,
2013-01-12 08:13:00,-999.0,-99.9,29.70,East,89,17.0,19.0,-999,-99.99,,,-99.99,,2013-01-12 17:13:00,
2013-01-12 08:23:00,-999.0,-99.9,29.70,East,89,17.0,19.0,-999,-99.99,,,-99.99,,2013-01-12 17:23:00,
2013-01-12 09:33:00,-999.0,-99.9,29.64,ENE,72,18.0,22.0,-999,-99.99,,,-99.99,,2013-01-12 18:33:00,
2013-01-12 09:43:00,27.0,-99.9,29.63,ENE,69,18.0,22.0,-999,-99.99,,,-99.99,,2013-01-12 18:43:00,
2013-01-12 09:53:00,-999.0,-99.9,29.62,ENE,66,21.0,25.0,-999,-99.99,,,-99.99,,2013-01-12 18:53:00,
2013-01-12 10:03:00,-999.0,-99.9,29.62,ENE,73,19.0,26.0,-999,-99.99,,,-99.99,,2013-01-12 19:03:00,
2013-01-12 10:12:00,27.0,-99.9,29.62,ENE,70,20.0,23.0,-999,-99.99,,,-99.99,,2013-01-12 19:12:00,
2013-01-12 10:23:00,-999.0,-99.9,29.61,ENE,72,20.0,25.0,-999,-99.99,,,-99.99,,2013-01-12 19:23:00,
2013-01-12 10:33:00,-999.0,-99.9,29.60,ENE,75,19.0,24.0,-999,-99.99,,,-99.99,,2013-01-12 19:33:00,
2013-01-12 10:43:00,27.0,-99.9,29.60,ENE,72,21.0,26.0,-999,-99.99,,,-99.99,,2013-01-12 19:43:00,
2013-01-12 10:53:00,-999.0,-99.9,29.60,ENE,70,21.0,25.0,-999,-99.99,,,-99.99,,2013-01-12 19:53:00,
2013-01-12 11:03:00,-999.0,-99.9,29.59,ENE,71,20.0,25.0,-999,-99.99,,,-99.99,,2013-01-12 20:03:00,
2013-01-12 11:13:00,-999.0,-99.9,29.57,ENE,69,21.0,23.0,-999,-99.99,,,-99.99,,2013-01-12 20:13:00,
2013-01-12 11:22:00,-999.0,-99.9,29.57,ENE,71,21.0,25.0,-999,-99.99,,,-99.99,,2013-01-12 20:22:00,
2013-01-12 11:33:00,-999.0,-99.9,29.56,ENE,70,22.0,27.0,-999,-99.99,,,-99.99,,2013-01-12 20:33:00,
2013-01-12 11:43:00,28.0,-99.9,29.56,ENE,72,21.0,27.0,-999,-99.99,,,-99.99,,2013-01-12 20:43:00,
2013-01-12 11:53:00,-999.0,-99.9,29.55,ENE,69,21.0,27.0,-999,-99.99,,,-99.99,,2013-01-12 20:53:00,
2013-01-12 12:03:00,-999.0,-99.9,29.55,ENE,63,22.0,25.0,-999,-99.99,,,-99.99,,2013-01-12 21:03:00,
2013-01-12 12:12:00,28.0,-99.9,29.54,ENE,62,19.0,26.0,-999,-99.99,,,-99.99,,2013-01-12 21:12:00,
2013-01-12 12:22:00,-999.0,-99.9,29.53,ENE,65,23.0,26.0,-999,-99.99,,,-99.99,,2013-01-12 21:22:00,
2013-01-12 12:33:00,-999.0,-99.9,29.52,ENE,68,23.0,28.0,-999,-99.99,,,-99.99,,2013-01-12 21:33:00,
2013-01-12 12:43:00,27.0,-99.9,29.52,ENE,65,22.0,28.0,-999,-99.99,,,-99.99,,2013-01-12 21:43:00,
2013-01-12 12:53:00,-999.0,-99.9,29.51,ENE,68,23.0,28.0,-999,-99.99,,,-99.99,,2013-01-12 21:53:00,
2013-01-12 13:03:00,-999.0,-99.9,29.50,ENE,71,22.0,26.0,-999,-99.99,,,-99.99,,2013-01-12 22:03:00,
2013-01-12 13:12:00,-999.0,-99.9,29.49,ENE,71,21.0,26.0,-999,-99.99,,,-99.99,,2013-01-12 22:12:00,
2013-01-12 13:23:00,-999.0,-99.9,29.49,ENE,72,22.0,27.0,-999,-99.99,,,-99.99,,2013-01-12 22:23:00,
2013-01-12 13:33:00,-999.0,-99.9,29.48,ENE,69,24.0,27.0,-999,-99.99,,,-99.99,,2013-01-12 22:33:00,
2013-01-12 13:44:00,27.0,-99.9,29.47,ENE,73,23.0,29.0,-999,-99.99,,,-99.99,,2013-01-12 22:44:00,
2013-01-12 13:53:00,-999.0,-99.9,29.47,ENE,74,23.0,28.0,-999,-99.99,,,-99.99,,2013-01-12 22:53:00,
2013-01-12 14:03:00,-999.0,-99.9,29.46,ENE,74,23.0,30.0,-999,-99.99,,,-99.99,,2013-01-12 23:03:00,
2013-01-12 14:13:00,27.0,-99.9,29.45,ENE,75,21.0,28.0,-999,-99.99,,,-99.99,,2013-01-12 23:13:00,
2013-01-12 14:23:00,-999.0,-99.9,29.45,ENE,76,24.0,27.0,-999,-99.99,,,-99.99,,2013-01-12 23:23:00,
2013-01-12 14:33:00,-999.0,-99.9,29.45,East,79,23.0,28.0,-999,-99.99,,,-99.99,,2013-01-12 23:33:00,
2013-01-12 14:43:00,27.0,-99.9,29.44,ENE,76,22.0,28.0,-999,-99.99,,,-99.99,,2013-01-12 23:43:00,
2013-01-12 14:53:00,-999.0,-99.9,29.42,ENE,75,25.0,28.0,-999,-99.99,,,-99.99,,2013-01-12 23:53:00,
2013-01-12 15:03:00,-999.0,-99.9,29.41,ENE,77,24.0,29.0,-999,-99.99,,,-99.99,,2013-01-13 00:03:00,
2013-01-12 15:12:00,-999.0,-99.9,29.40,ENE,74,23.0,29.0,-999,-99.99,,,-99.99,,2013-01-13 00:12:00,
2013-01-12 15:23:00,27.0,-99.9,29.40,ENE,75,23.0,28.0,-999,-99.99,,,-99.99,,2013-01-13 00:23:00,
2013-01-12 15:33:00,-999.0,-99.9,29.39,ENE,71,24.0,28.0,-999,-99.99,,,-99.99,,2013-01-13 00:33:00,
2013-01-12 15:43:00,27.0,-99.9,29.38,ENE,72,23.0,29.0,-999,-99.99,,,-99.99,,2013-01-13 00:43:00,
2013-01-12 15:53:00,-999.0,-99.9,29.38,ENE,74,24.0,28.0,-999,-99.99,,,-99.99,,2013-01-13 00:53:00,
2013-01-12 16:03:00,-999.0,-99.9,29.36,ENE,75,23.0,28.0,-999,-99.99,,,-99.99,,2013-01-13 01:03:00,
2013-01-12 16:12:00,27.0,-99.9,29.36,ENE,76,23.0,28.0,-999,-99.99,,,-99.99,,2013-01-13 01:12:00,
2013-01-12 16:23:00,-999.0,-99.9,29.35,ENE,76,23.0,30.0,-999,-99.99,,,-99.99,,2013-01-13 01:23:00,
2013-01-12 16:33:00,-999.0,-99.9,29.34,ENE,77,24.0,29.0,-999,-99.99,,,-99.99,,2013-01-13 01:33:00,
2013-01-12 16:43:00,-999.0,-99.9,29.33,East,80,24.0,29.0,-999,-99.99,,,-99.99,,2013-01-13 01:43:00,
2013-01-12 16:53:00,-999.0,-99.9,29.33,East,79,22.0,27.0,-999,-99.99,,,-99.99,,2013-01-13 01:53:00,
2013-01-12 17:03:00,-999.0,-99.9,29.31,ENE,77,23.0,30.0,-999,-99.99,,,-99.99,,2013-01-13 02:03:00,
2013-01-12 17:13:00,27.0,-99.9,29.31,ENE,78,24.0,29.0,-999,-99.99,,,-99.99,,2013-01-13 02:13:00,
2013-01-12 17:23:00,-999.0,-99.9,29.30,ENE,76,24.0,32.0,-999,-99.99,,,-99.99,,2013-01-13 02:23:00,
2013-01-12 17:33:00,-999.0,-99.9,29.29,ENE,77,24.0,32.0,-999,-99.99,,,-99.99,,2013-01-13 02:33:00,
2013-01-12 17:43:00,28.0,-99.9,29.28,ENE,75,23.0,29.0,-999,-99.99,,,-99.99,,2013-01-13 02:43:00,
2013-01-12 17:53:00,-999.0,-99.9,29.28,ENE,76,24.0,31.0,-999,-99.99,,,-99.99,,2013-01-13 02:53:00,
2013-01-12 18:03:00,-999.0,-99.9,29.27,East,79,23.0,30.0,-999,-99.99,,,-99.99,,2013-01-13 03:03:00,
2013-01-12 18:12:00,28.0,-99.9,29.27,ENE,78,25.0,30.0,-999,-99.99,,,-99.99,,2013-01-13 03:12:00,
2013-01-12 18:22:00,-999.0,-99.9,29.26,East,81,23.0,32.0,-999,-99.99,,,-99.99,,2013-01-13 03:22:00,
2013-01-12 18:33:00,-999.0,-99.9,29.26,East,82,23.0,30.0,-999,-99.99,,,-99.99,,2013-01-13 03:33:00,
2013-01-12 18:43:00,28.0,-99.9,29.25,East,79,24.0,30.0,-999,-99.99,,,-99.99,,2013-01-13 03:43:00,
2013-01-12 18:53:00,-999.0,-99.9,29.24,East,79,24.0,30.0,-999,-99.99,,,-99.99,,2013-01-13 03:53:00,
2013-01-12 19:03:00,-999.0,-99.9,29.24,East,80,26.0,30.0,-999,-99.99,,,-99.99,,2013-01-13 04:03:00,
2013-01-12 19:12:00,28.0,-99.9,29.23,East,83,23.0,31.0,-999,-99.99,,,-99.99,,2013-01-13 04:12:00,
2013-01-12 19:22:00,-999.0,-99.9,29.23,East,84,24.0,29.0,-999,-99.99,,,-99.99,,2013-01-13 04:22:00,
2013-01-12 19:33:00,-999.0,-99.9,29.22,East,83,26.0,33.0,-999,-99.99,,,-99.99,,2013-01-13 04:33:00,
2013-01-12 19:43:00,29.0,-99.9,29.22,ENE,78,25.0,29.0,-999,-99.99,,,-99.99,,2013-01-13 04:43:00,
2013-01-12 19:53:00,-999.0,-99.9,29.21,East,82,25.0,30.0,-999,-99.99,,,-99.99,,2013-01-13 04:53:00,
2013-01-12 20:03:00,-999.0,-99.9,29.21,East,80,28.0,33.0,-999,-99.99,,,-99.99,,2013-01-13 05:03:00,
2013-01-12 20:12:00,29.0,-99.9,29.20,East,85,26.0,31.0,-999,-99.99,,,-99.99,,2013-01-13 05:12:00,
2013-01-12 20:23:00,-999.0,-99.9,29.19,East,81,27.0,32.0,-999,-99.99,,,-99.99,,2013-01-13 05:23:00,
2013-01-12 20:33:00,-999.0,-99.9,29.19,East,82,23.0,30.0,-999,-99.99,,,-99.99,,2013-01-13 05:33:00,
2013-01-12 20:42:00,29.0,-99.9,29.18,East,82,24.0,29.0,-999,-99.99,,,-99.99,,2013-01-13 05:42:00,
2013-01-12 20:53:00,-999.0,-99.9,29.17,East,84,21.0,27.0,-999,-99.99,,,-99.99,,2013-01-13 05:53:00,
2013-01-12 21:03:00,-999.0,-99.9,29.16,East,79,26.0,30.0,-999,-99.99,,,-99.99,,2013-01-13 06:03:00,
2013-01-12 21:12:00,-999.0,-99.9,29.15,East,82,23.0,28.0,-999,-99.99,,,-99.99,,2013-01-13 06:12:00,
2013-01-12 21:22:00,30.0,-99.9,29.15,East,80,25.0,32.0,-999,-99.99,,,-99.99,,2013-01-13 06:22:00,
2013-01-12 21:33:00,-999.0,-99.9,29.14,East,85,23.0,29.0,-999,-99.99,,,-99.99,,2013-01-13 06:33:00,
2013-01-12 21:43:00,30.0,-99.9,29.13,East,86,24.0,32.0,-999,-99.99,,,-99.99,,2013-01-13 06:43:00,
2013-01-12 21:52:00,-999.0,-99.9,29.13,East,87,26.0,31.0,-999,-99.99,,,-99.99,,2013-01-13 06:52:00,
2013-01-12 22:02:00,-999.0,-99.9,29.12,East,85,26.0,30.0,-999,-99.99,,,-99.99,,2013-01-13 07:02:00,
2013-01-12 22:12:00,29.0,-99.9,29.11,East,89,25.0,28.0,-999,-99.99,,,-99.99,,2013-01-13 07:12:00,
2013-01-12 22:22:00,-999.0,-99.9,29.10,East,88,24.0,29.0,-999,-99.99,,,-99.99,,2013-01-13 07:22:00,
2013-01-12 22:33:00,-999.0,-99.9,29.10,East,87,24.0,29.0,-999,-99.99,,,-99.99,,2013-01-13 07:33:00,
2013-01-12 22:42:00,-999.0,-99.9,29.09,East,84,24.0,27.0,-999,-99.99,,,-99.99,,2013-01-13 07:42:00,
2013-01-12 22:53:00,-999.0,-99.9,29.09,East,82,23.0,28.0,-999,-99.99,,,-99.99,,2013-01-13 07:53:00,
2013-01-12 23:02:00,-999.0,-99.9,29.08,East,83,25.0,29.0,-999,-99.99,,,-99.99,,2013-01-13 08:02:00,
2013-01-12 23:12:00,29.0,-99.9,29.08,East,82,25.0,30.0,-999,-99.99,,,-99.99,,2013-01-13 08:12:00,
2013-01-12 23:22:00,-999.0,-99.9,29.07,East,82,26.0,30.0,-999,-99.99,,,-99.99,,2013-01-13 08:22:00,
2013-01-12 23:32:00,-999.0,-99.9,29.06,East,86,25.0,29.0,-999,-99.99,,,-99.99,,2013-01-13 08:32:00,
2013-01-12 23:42:00,30.0,-99.9,29.05,East,88,23.0,27.0,-999,-99.99,,,-99.99,,2013-01-13 08:42:00,
2013-01-12 23:53:00,-999.0,-99.9,29.05,East,89,24.0,32.0,-999,-99.99,,,-99.99,,2013-01-13 08:53:00,